Simultaneous Nadir Overpasses (SNOs) Predictions

Prediction of SNOs between NOAA-20 and AQUA Satellite Orbit:

Table of predicted SNOs for the next 14.0 days since TLE Epoch: 10/8/2022
Index Date (NOAA-20) Time (NOAA-20) Lat,Lon (NOAA-20) SZA (NOAA-20 ) Date (AQUA) Time (AQUA) Lat,Lon (AQUA) SZA (AQUA ) Distance(km) Time Diff (sec)
1 10/08/2022 12:15:36 79.07,-110.49 98.44 10/08/2022 12:16:23 79.06,-110.52 98.40 0.58 47
2 10/08/2022 13:06:12 -79.40, 59.27 82.07 10/08/2022 13:05:41 -79.39, 59.25 82.04 0.65 31
3 10/11/2022 03:41:45 -79.14,-161.55 80.72 10/11/2022 03:42:35 -79.13,-161.64 80.74 2.18 50
4 10/11/2022 04:32:20 79.46, 8.21 98.80 10/11/2022 04:31:52 79.45, 8.11 98.84 2.05 28
5 10/13/2022 19:07:52 79.19, 147.31 100.14 10/13/2022 19:08:44 79.18, 147.16 100.13 3.04 52
6 10/13/2022 19:58:33 -79.35, -44.17 80.10 10/13/2022 19:58:06 -79.36, -44.06 80.10 2.47 27
7 10/16/2022 10:34:07 -79.04, 94.71 78.71 10/16/2022 10:34:59 -79.05, 94.77 78.76 1.43 52
8 10/16/2022 11:24:42 79.36, -95.62 100.82 10/16/2022 11:24:16 79.37, -95.53 100.83 1.96 26
9 10/19/2022 02:00:15 79.08, 43.44 102.16 10/19/2022 02:01:07 79.09, 43.51 102.11 1.47 52
10 10/19/2022 02:50:50 -79.45,-146.44 78.40 10/19/2022 02:50:24 -79.46,-146.44 78.38 0.25 26
11 10/21/2022 17:26:24 -79.14, -7.67 77.03 10/21/2022 17:27:15 -79.14, -7.69 77.06 0.47 51



Historial Predications of SNOs between NOAA-20 and AQUA
